Tracking 35274 objects as of 10-Sep-2026
HD Live streaming from Space Station
objects crossing your sky now

STARLINK-35087

Track STARLINK-35087 now!
10-day predictions
STARLINK-35087 is classified as:


NORAD ID: 65541
Int'l Code: 2025-200X
Launch date: September 6, 2025
Source: United States (US)
Launch site: AIR FORCE EASTERN TEST RANGE (AFETR)
Your satellite tracking list
Your tracking list is empty




NASA's NSSDC Master Catalog

Two Line Element Set (TLE):
1 65541U 25200X   26251.72670427  .00017743  00000-0  55026-3 0  9994
2 65541  97.2848 318.2337 0001392 139.6924 220.4423 15.33466766 56833
Source of the keplerian elements: AFSPC